Location: München
(48.1351°N, 11.5820°E)
Time: 22:35:04
(UTC+01:00)

ISS - Pass Details

Date: 26 January 2020
Orbit: 415 x 423 km, 51.6° (Epoch: 25 February)

Event Time Altitude Azimuth Distance (km) Brightness Sun altitude
Rises 19:58:35 0° 279° (W) 2,378 1.3 -29.1°
Reaches altitude 10° 20:00:46 10° 286° (WNW) 1,512 -0.1 -29.5°
Enters shadow 20:01:34 16° 291° (WNW) 1,209 -0.7 -29.6°
